Powrót do katalogu

PRAETORIAN SDA_509

AktywnyPO
NORAD 100067·PAYLOAD·🇺🇸 United States

Wystrzelony Jul 16, 2026 z Vandenberg Space Force Base

Loading…

Następne Przeloty (najbliższe 24 godziny)

TLE

ŚwieżeSource: Space-Track

Epoka: Sep 14, 2026, 23:28 UTC

1 A0067U 26163J   26257.97846172  .00000142  00000-0  11308-3 0  9990
2 A0067  81.4759 254.9857 0014890  53.8174 306.4359 13.85606224  8330

Śledź PRAETORIAN SDA_509 w czasie rzeczywistym z AllMySat

Download on the App Store